This is the latest recevied weather packets stored in our database for station/object 9W3FAB-1. If no packets are shown the sender has not sent any weather packets the latest 10 day(s).
| Time | Temp. | Humidity | Pressure | Rain* | Wind** | Luminosity | Snow |
|---|---|---|---|---|---|---|---|
| 1778210206 | 28.33° C | 100% | 1008.4 hPa | - | - | - | - |
| 1778209305 | 27.78° C | 100% | 1008.5 hPa | - | - | - | - |
| 1778208405 | 27.78° C | 100% | 1008.6 hPa | - | - | - | - |
| 1778207504 | 27.78° C | 100% | 1008.7 hPa | - | - | - | - |
| 1778206603 | 27.78° C | 100% | 1008.6 hPa | - | - | - | - |
| 1778205702 | 27.78° C | 100% | 1008.7 hPa | - | - | - | - |
| 1778204801 | 27.22° C | 100% | 1008.6 hPa | - | - | - | - |
| 1778203901 | 27.22° C | 100% | 1008.4 hPa | - | - | - | - |
| 1778203000 | 26.67° C | 100% | 1008.4 hPa | - | - | - | - |
| 1778202099 | 26.67° C | 100% | 1008.3 hPa | - | - | - | - |
| 1778201198 | 26.67° C | 100% | 1008.2 hPa | - | - | - | - |
| 1778200297 | 26.67° C | 100% | 1008.1 hPa | - | - | - | - |
| 1778199396 | 26.67° C | 100% | 1007.8 hPa | - | - | - | - |
| 1778198495 | 26.11° C | 100% | 1007.5 hPa | - | - | - | - |
| 1778197677 | 25.56° C | 100% | 1007.6 hPa | - | - | - | - |
| 1778196776 | 25.56° C | 100% | 1007.8 hPa | - | - | - | - |
| 1778195875 | 25.56° C | 100% | 1007.5 hPa | - | - | - | - |
| 1778194975 | 25.56° C | 100% | 1007.4 hPa | - | - | - | - |
| 1778194074 | 25.56° C | 100% | 1007.1 hPa | - | - | - | - |
| 1778193173 | 25.56° C | 100% | 1007 hPa | - | - | - | - |
| 1778192272 | 26.11° C | 100% | 1006.8 hPa | - | - | - | - |
| 1778191371 | 26.11° C | 100% | 1006.9 hPa | - | - | - | - |
| 1778190471 | 26.11° C | 100% | 1006.8 hPa | - | - | - | - |
| 1778189570 | 26.67° C | 100% | 1006.5 hPa | - | - | - | - |
| 1778188669 | 26.67° C | 100% | 1006.3 hPa | - | - | - | - |
* Rain since midnight (hover to see other rain measurements)
** Current wind speed in m/s (hover to see current wind gust speed)